#timestamp,LO_Frequency,Hit,StdDev 
1579813215.2,286046997.9,N
1579813235.0,286046996.9,N
1579813235.9,286046996.9,N
1579813255.8,286047001.2,N
1579813275.6,286046998.2,N
1579813295.4,286046999.2,N
1579813315.3,286046999.6,N
1579813335.1,286046999.3,N
1579813355.8,286046996.7,N
1579813375.7,286046997.9,N
1579813395.5,286046998.8,N
1579813415.4,286047000.9,N
1579813435.2,286047002.3,N
1579813455.0,286047000.5,N
1579813455.9,286047000.5,N
1579813475.8,286046998.6,N
1579813495.6,286047001.2,N
1579813515.5,286047000.0,N
1579813535.3,286046998.1,N
1579813555.1,286046996.6,N
1579813575.9,286047000.6,N
1579813595.7,286047000.0,N
1579813615.5,286047000.0,N
1579813635.4,286047001.5,N
1579813655.2,286047002.7,N
1579813675.1,286047001.5,N
1579813676.0,286047001.5,N
1579813695.8,286047004.0,N
1579813715.6,286047003.5,N
1579813735.5,286047001.9,N
1579813755.3,286047001.6,N
1579813775.1,286047002.8,N
1579813795.9,286047000.3,N
1579813815.7,286047000.1,N
1579813835.6,286047002.3,N
1579813855.4,286047001.4,N
1579813875.2,286046999.7,N
1579813895.1,286047000.6,N
1579813896.0,286047000.6,N
1579813915.8,286047000.2,N
1579813935.7,286047001.1,N
1579813955.5,286047000.3,N
1579813975.3,286047001.1,N
1579813995.2,286047002.7,N
1579814015.9,286047003.1,N
1579814035.7,286047003.7,N
1579814055.6,286047001.8,N
1579814075.4,286047003.5,N
1579814095.3,286047001.7,N
1579814115.1,286047002.6,N
1579814116.0,286047002.6,N
1579814135.8,286047000.0,N
1579814155.7,286046998.4,N
1579814175.5,286047000.1,N
1579814195.3,286047002.4,N
1579814215.2,286046998.3,N
1579814235.0,286046996.8,N
1579814235.9,286046996.8,N
1579814255.8,286046996.8,N
1579814275.6,286047000.7,N
1579814295.4,286046999.8,N
1579814315.3,286047002.3,N
1579814335.1,286047002.8,N
1579814355.8,286047000.0,N
1579814375.7,286047002.3,N
1579814395.5,286047003.7,N
1579814415.4,286047001.8,N
1579814435.2,286047002.7,N
1579814455.0,286046998.7,N
1579814455.9,286046998.7,N
1579814475.8,286046998.3,N
1579814495.6,286046998.4,N
1579814515.5,286046998.5,N
1579814535.3,286046998.6,N
1579814555.1,286046998.3,N
1579814575.9,286046998.7,N
1579814595.7,286046997.1,N
1579814615.5,286046997.7,N
1579814635.4,286046997.0,N
1579814655.2,286046999.2,N
1579814675.1,286046999.1,N
1579814676.0,286046999.1,N
1579814695.8,286047002.0,N
1579814715.6,286047001.4,N
1579814735.5,286047002.5,N
1579814755.3,286047002.2,N
1579814775.1,286047003.4,N
1579814795.9,286047005.8,N
1579814815.7,286047001.3,N
1579814835.6,286047001.7,N
1579814855.4,286046999.8,N
1579814875.2,286046998.1,N
1579814895.1,286046998.2,N
1579814896.0,286046998.2,N
1579814915.8,286047000.4,N
1579814935.7,286047003.8,N
1579814955.5,286047002.1,N
1579814975.3,286047001.2,N
1579814995.2,286047000.0,N
1579815015.9,286047002.0,N
1579815035.7,286047002.1,N
1579815055.6,286047004.0,N
1579815075.4,286047002.2,N
1579815095.3,286047001.7,N
1579815115.1,286047002.4,N
1579815116.0,286047002.4,N
1579815135.8,286046999.7,N
1579815155.7,286047002.3,N
1579815175.5,286046998.4,N
1579815195.3,286046996.7,N
1579815215.2,286046999.5,N
1579815235.0,286046998.7,N
1579815235.9,286046998.7,N
1579815255.8,286046998.9,N
1579815275.6,286046999.9,N
1579815295.4,286046999.9,N
1579815315.3,286047000.6,N
1579815335.1,286047000.7,N
1579815355.8,286046998.4,N
1579815375.7,286046998.2,N
1579815395.5,286046999.1,N
1579815415.4,286046998.7,N
1579815435.2,286047000.7,N
1579815455.0,286046999.6,N
1579815455.9,286046999.6,N
1579815475.8,286046997.1,N
1579815495.6,286046997.7,N
1579815515.4,286046995.8,N
1579815535.3,286046995.9,N
1579815555.1,286046994.9,N
1579815575.9,286046995.3,N
1579815595.7,286046998.0,N
1579815615.5,286046999.3,N
1579815635.4,286047000.7,N
1579815655.2,286046998.3,N
1579815675.0,286046999.2,N
1579815676.0,286046999.2,N
1579815695.8,286046999.5,N
1579815715.6,286046999.0,N
1579815735.5,286046997.9,N
1579815755.3,286046995.7,N
1579815775.1,286046995.7,N
1579815795.9,286046995.9,N
1579815815.7,286046995.2,N
1579815835.6,286046996.1,N
1579815855.4,286046996.4,N
1579815875.2,286046994.3,Y
1579815895.1,286046993.4,P
1579815896.0,286046993.4,N
1579815915.8,286046992.6,P
1579815935.6,286046992.7,Y
1579815955.5,286046997.0,P
1579815975.3,286046997.1,N
1579815995.2,286046996.0,P
1579816015.9,286046995.5,Y
1579816035.7,286046997.3,P
1579816055.6,286046997.0,P
1579816075.4,286046999.4,N
1579816095.3,286046996.7,N
1579816115.1,286046997.1,N
1579816116.0,286046997.1,N
1579816135.8,286046999.6,N
1579816155.7,286046997.2,N
1579816175.5,286046995.3,Y
1579816195.3,286046999.4,P
1579816215.2,286046996.7,P
1579816235.0,286046994.9,P
1579816235.9,286046994.9,Y
1579816255.8,286047001.0,P
1579816275.6,286047000.8,N
1579816295.4,286047000.4,N
1579816315.3,286047000.7,N
1579816335.1,286047001.0,N
1579816355.9,286047001.2,N
1579816375.7,286046998.9,N
1579816395.5,286046999.4,N
1579816415.4,286046999.4,N
1579816435.2,286046996.7,N
1579816455.0,286046999.6,N
1579816455.9,286046999.6,N
1579816475.8,286046995.7,Y
1579816495.6,286046995.0,P
1579816515.5,286046995.2,N
1579816535.3,286046995.5,N
1579816555.1,286046997.6,N
1579816575.9,286046996.0,N
1579816595.7,286046994.0,Y
1579816615.5,286046996.6,P
1579816635.4,286046996.6,P
1579816655.2,286046998.8,P
1579816675.1,286046998.9,N
1579816676.0,286046998.9,N
1579816695.8,286046999.1,N
1579816715.6,286046998.7,N
1579816735.5,286046999.0,N
1579816755.3,286046997.1,N
1579816775.2,286046997.1,N
1579816795.9,286046999.6,N
